Location: Haliburton Scout Reserve
(45.0900°N, 78.3200°W)
Time: 05:08:01
(UTC-05:00)

Explorer 7 - All Passes

Search period start: 31 January 2023 00:00
Search period end: 10 February 2023 00:00
Orbit: 480 x 660 km, 50.3° (Epoch: 30 January)

Date Brightness Start Highest point End Pass type
(mag) Time Alt. Az. Time Alt. Az. Time Alt. Az.
31 Jan - 12:42:42 10° SSW 12:46:34 39° SE 12:50:40 10° ENE daylight
31 Jan - 14:22:30 10° W 14:26:45 62° NNW 14:31:17 10° ENE daylight
31 Jan - 16:03:19 10° WNW 16:07:36 42° N 16:12:03 10° ENE daylight
31 Jan - 17:43:48 10° WNW 17:48:24 70° NNE 17:53:10 10° ESE visible
31 Jan - 19:24:19 10° WNW 19:28:36 35° SW 19:32:58 10° SSE visible
01 Feb - 11:07:16 10° SE 11:08:01 10° SE 11:08:47 10° ESE daylight
01 Feb - 12:43:24 10° SW 12:47:26 55° SE 12:51:46 10° ENE daylight
01 Feb - 14:23:38 10° W 14:27:50 52° NNW 14:32:18 10° ENE daylight
01 Feb - 16:04:25 10° WNW 16:08:43 44° N 16:13:13 10° E daylight
01 Feb - 17:44:48 10° WNW 17:49:25 87° NNE 17:54:12 10° ESE visible
01 Feb - 19:25:34 10° W 19:29:26 25° SW 19:33:20 10° SSE visible
02 Feb - 11:06:12 10° S 11:08:43 16° SE 11:11:20 10° E daylight
02 Feb - 12:44:15 10° SW 12:48:23 76° SSE 12:52:47 10° ENE daylight
02 Feb - 14:24:46 10° W 14:28:56 46° N 14:33:20 10° ENE daylight
02 Feb - 16:05:29 10° WNW 16:09:50 48° NNE 16:14:22 10° E daylight
02 Feb - 17:45:48 10° WNW 17:50:23 73° SSW 17:55:08 10° SE visible
02 Feb - 19:27:03 10° W 19:30:11 18° SW 19:33:22 10° S visible
03 Feb - 11:06:13 10° S 11:09:28 23° SE 11:12:51 10° E daylight
03 Feb - 12:45:12 10° WSW 12:49:21 82° NNW 12:53:47 10° ENE daylight
03 Feb - 14:25:55 10° WNW 14:30:02 42° N 14:34:24 10° ENE daylight
03 Feb - 16:06:30 10° WNW 16:10:54 55° NNE 16:15:31 10° E daylight
03 Feb - 17:46:49 10° WNW 17:51:18 53° SW 17:55:56 10° SE visible
03 Feb - 19:29:10 10° WSW 19:30:55 12° SW 19:32:40 10° SSW visible
04 Feb - 11:06:37 10° SSW 11:10:15 34° SE 11:14:06 10° ENE daylight
04 Feb - 12:46:14 10° WSW 12:50:21 64° NNW 12:54:45 10° ENE daylight
04 Feb - 14:27:02 10° WNW 14:31:09 41° N 14:35:29 10° ENE daylight
04 Feb - 16:07:29 10° WNW 16:11:56 66° NNE 16:16:36 10° ESE daylight
04 Feb - 17:47:54 10° WNW 17:52:10 38° SW 17:56:34 10° SSE visible
05 Feb - 11:07:13 10° SW 11:11:05 49° SE 11:15:12 10° ENE daylight
05 Feb - 12:47:19 10° W 12:51:23 53° NNW 12:55:43 10° ENE daylight
05 Feb - 14:28:06 10° WNW 14:32:14 42° N 14:36:36 10° ENE daylight
05 Feb - 16:08:26 10° WNW 16:12:56 82° NNE 16:17:37 10° ESE daylight
05 Feb - 17:49:05 10° W 17:52:59 27° SW 17:56:59 10° SSE visible
06 Feb - 09:30:24 10° SSE 09:32:24 14° SE 09:34:27 10° E daylight
06 Feb - 11:08:00 10° SW 11:11:58 69° SSE 11:16:13 10° ENE daylight
06 Feb - 12:48:26 10° W 12:52:27 46° N 12:56:43 10° ENE daylight
06 Feb - 14:29:08 10° WNW 14:33:19 46° N 14:37:43 10° E daylight
06 Feb - 16:09:25 10° WNW 16:13:53 78° SSW 16:18:34 10° ESE daylight
06 Feb - 17:50:28 10° W 17:53:44 19° SW 17:57:05 10° S visible
07 Feb - 09:30:11 10° S 09:33:06 20° SE 09:36:09 10° E daylight
07 Feb - 11:08:54 10° WSW 11:12:53 87° NNW 11:17:11 10° ENE daylight
07 Feb - 12:49:32 10° WNW 12:53:31 42° N 12:57:44 10° ENE daylight
07 Feb - 14:30:07 10° WNW 14:34:21 52° NNE 14:38:49 10° E daylight
07 Feb - 16:10:23 10° WNW 16:14:47 58° SSW 16:19:22 10° SE daylight
07 Feb - 17:52:20 10° WSW 17:54:26 13° SW 17:56:36 10° SSW daylight
08 Feb - 09:30:26 10° SSW 09:33:51 29° SE 09:37:26 10° ENE daylight
08 Feb - 11:09:53 10° WSW 11:13:52 68° NNW 11:18:06 10° ENE daylight
08 Feb - 12:50:38 10° WNW 12:54:35 40° N 12:58:47 10° ENE daylight
08 Feb - 14:31:04 10° WNW 14:35:22 61° NNE 14:39:54 10° E daylight
08 Feb - 16:11:25 10° WNW 16:15:38 41° SW 16:20:01 10° SSE daylight
09 Feb - 09:30:57 10° SW 09:34:38 43° SE 09:38:32 10° ENE daylight
09 Feb - 11:10:55 10° W 11:14:51 54° NNW 11:19:03 10° ENE daylight
09 Feb - 12:51:41 10° WNW 12:55:39 41° N 12:59:51 10° ENE daylight
09 Feb - 14:32:00 10° WNW 14:36:20 76° NNE 14:40:54 10° ESE daylight
09 Feb - 16:12:32 10° W 16:16:26 29° SW 16:20:27 10° SSE daylight
